User: anonymous   Login
Location: Unspecified
(0.0000°N, 0.0000°E)
Time: 19:15:47
(UTC+00:00)
Language:

GRACE-1 - Orbit

View from above orbital plane
View from above orbital plane
View from above satellite
View from above satellite

Ground track
Ground track

The orbit data is extracted from the following two-line orbital elements,

1 27391U 02012A   18050.72425705 +.00314106 +46161-4 +34848-3 0  9990
2 27391 088.9650 283.8055 0007577 071.3591 328.2744 16.09512278896748
Epoch (UTC): 19 February 2018 17:22:55
Eccentricity: 0.0007577
inclination: 88.9650°
perigee height: 243 km
apogee height: 253 km
right ascension of ascending node: 283.8055°
argument of perigee: 71.3591°
revolutions per day: 16.09512278
mean anomaly at epoch: 328.2744°
orbit number at epoch: 89674

The dashed part of the orbit path shows where the satellite is in the earth's shadow,  

DLR